カタログに戻る

TITAN 3C TRANSTAGE DEB

LostHEO
NORAD 26780·DEBRIS·🇺🇸 United States

打ち上げ Dec 21, 1965 から Cape Canaveral Space Force Station

Loading…

次のパス (今後24時間)

TLE

古いSource: Space-Track

元期: Aug 6, 2026, 08:08 UTC

1 26780U 65108AY  26218.33951222 -.00000051  00000-0  00000-0 0  9996
2 26780  26.2820 182.5385 6271802 168.0905 353.5331  2.58801075141782

AllMySatでTITAN 3C TRANSTAGE DEBをリアルタイム追跡

Download on the App Store